Time,TemperatureF,DewpointF,PressureIn,WindDirection,WindDirectionDegrees,WindSpeedMPH,WindSpeedGustMPH,Humidity,HourlyPrecipIn,Conditions,Clouds,dailyrainin,SolarRadiationWatts/m^2,SoftwareType,DateUTC
2013-05-07 00:02:00,51.0,50.0,-100.00,SW,218,3.0,9.0,96,-99.99,,,0.00,0.000000,,2013-05-07 07:02:00,
2013-05-07 00:11:00,51.0,50.0,-100.00,SW,218,3.0,9.0,96,-99.99,,,0.00,0.000000,,2013-05-07 07:11:00,
2013-05-07 00:52:00,51.0,50.0,-100.00,SSW,211,2.0,5.0,96,-99.99,,,0.00,0.000000,,2013-05-07 07:52:00,
2013-05-07 01:02:00,51.0,50.0,-100.00,SSW,211,2.0,5.0,96,-99.99,,,0.00,0.000000,,2013-05-07 08:02:00,
2013-05-07 01:11:00,51.0,50.0,-100.00,SSW,211,2.0,5.0,96,-99.99,,,0.00,0.000000,,2013-05-07 08:11:00,
2013-05-07 01:52:00,50.0,49.0,-100.00,SW,231,1.0,5.0,97,-99.99,,,0.00,0.000000,,2013-05-07 08:52:00,
2013-05-07 02:01:00,50.0,49.0,-100.00,SW,231,1.0,5.0,97,-99.99,,,0.00,0.000000,,2013-05-07 09:01:00,
2013-05-07 02:11:00,50.0,49.0,-100.00,SW,231,1.0,5.0,97,-99.99,,,0.00,0.000000,,2013-05-07 09:11:00,
2013-05-07 02:52:00,50.0,49.0,-100.00,WSW,239,2.0,5.0,97,-99.99,,,0.00,0.000000,,2013-05-07 09:52:00,
2013-05-07 03:02:00,50.0,49.0,-100.00,WSW,239,2.0,5.0,97,-99.99,,,0.00,0.000000,,2013-05-07 10:02:00,
2013-05-07 03:12:00,50.0,49.0,-100.00,WSW,239,2.0,5.0,97,-99.99,,,0.00,0.000000,,2013-05-07 10:12:00,
2013-05-07 03:52:00,50.0,49.0,-100.00,SSW,198,2.0,4.0,98,-99.99,,,0.00,0.000000,,2013-05-07 10:52:00,
2013-05-07 04:02:00,50.0,49.0,-100.00,SSW,198,2.0,4.0,98,-99.99,,,0.00,0.000000,,2013-05-07 11:02:00,
2013-05-07 04:11:00,50.0,49.0,-100.00,SSW,198,2.0,4.0,98,-99.99,,,0.00,0.000000,,2013-05-07 11:11:00,
2013-05-07 05:52:00,50.0,50.0,-100.00,SSW,202,3.0,8.0,98,-99.99,,,-99.99,0.000000,,2013-05-07 12:52:00,
2013-05-07 06:02:00,50.0,50.0,-100.00,SSW,202,3.0,8.0,98,-99.99,,,-99.99,0.000000,,2013-05-07 13:02:00,
2013-05-07 06:11:00,50.0,50.0,-100.00,SSW,202,3.0,8.0,98,-99.99,,,-99.99,0.000000,,2013-05-07 13:11:00,
2013-05-07 06:52:00,50.0,50.0,-100.00,SSW,203,3.0,7.0,98,-99.99,,,0.00,2.320000,,2013-05-07 13:52:00,
2013-05-07 07:02:00,50.0,50.0,-100.00,SSW,203,3.0,7.0,98,-99.99,,,0.00,2.320000,,2013-05-07 14:02:00,
2013-05-07 07:11:00,50.0,50.0,-100.00,SSW,203,3.0,7.0,98,-99.99,,,0.00,2.320000,,2013-05-07 14:11:00,
2013-05-07 07:52:00,50.0,50.0,-100.00,SSW,201,3.0,9.0,98,-99.99,,,0.00,27.660000,,2013-05-07 14:52:00,
2013-05-07 08:01:00,50.0,50.0,-100.00,SSW,201,3.0,9.0,98,-99.99,,,0.00,27.660000,,2013-05-07 15:01:00,
2013-05-07 08:12:00,50.0,50.0,-100.00,SSW,201,3.0,9.0,98,-99.99,,,0.00,27.660000,,2013-05-07 15:12:00,
2013-05-07 08:42:00,51.0,51.0,-100.00,SSW,202,4.0,10.0,98,-99.99,,,0.00,102.040001,,2013-05-07 15:42:00,
2013-05-07 08:53:00,51.0,51.0,-100.00,SSW,202,4.0,10.0,98,-99.99,,,0.00,102.040001,,2013-05-07 15:53:00,
2013-05-07 09:03:00,51.0,51.0,-100.00,SSW,202,4.0,10.0,98,-99.99,,,0.00,102.040001,,2013-05-07 16:03:00,
2013-05-07 09:12:00,51.0,51.0,-100.00,SSW,202,4.0,10.0,98,-99.99,,,0.00,102.040001,,2013-05-07 16:12:00,
2013-05-07 11:41:00,54.0,51.0,-100.00,SSW,211,5.0,14.0,88,-99.99,,,0.00,365.160004,,2013-05-07 18:41:00,
2013-05-07 11:52:00,54.0,51.0,-100.00,SSW,211,5.0,14.0,88,-99.99,,,0.00,365.160004,,2013-05-07 18:52:00,
2013-05-07 12:02:00,54.0,51.0,-100.00,SSW,211,5.0,14.0,88,-99.99,,,0.00,365.160004,,2013-05-07 19:02:00,
2013-05-07 12:11:00,54.0,51.0,-100.00,SSW,211,5.0,14.0,88,-99.99,,,0.00,365.160004,,2013-05-07 19:11:00,
2013-05-07 13:42:00,56.0,51.0,-100.00,SW,236,3.0,13.0,83,-99.99,,,0.00,620.729980,,2013-05-07 20:42:00,
2013-05-07 13:52:00,56.0,51.0,-100.00,SW,236,3.0,13.0,83,-99.99,,,0.00,620.729980,,2013-05-07 20:52:00,
2013-05-07 14:01:00,56.0,51.0,-100.00,SW,236,3.0,13.0,83,-99.99,,,0.00,620.729980,,2013-05-07 21:01:00,
2013-05-07 14:11:00,56.0,51.0,-100.00,SW,236,3.0,13.0,83,-99.99,,,0.00,620.729980,,2013-05-07 21:11:00,
2013-05-07 14:42:00,55.0,51.0,-100.00,WSW,256,4.0,11.0,85,-99.99,,,0.00,545.299988,,2013-05-07 21:42:00,
2013-05-07 14:53:00,55.0,51.0,-100.00,WSW,256,4.0,11.0,85,-99.99,,,0.00,545.299988,,2013-05-07 21:53:00,
2013-05-07 15:02:00,55.0,51.0,-100.00,WSW,256,4.0,11.0,85,-99.99,,,0.00,545.299988,,2013-05-07 22:02:00,
2013-05-07 15:13:00,55.0,51.0,-100.00,WSW,256,4.0,11.0,85,-99.99,,,0.00,545.299988,,2013-05-07 22:13:00,
2013-05-07 15:42:00,55.0,51.0,-100.00,WSW,250,4.0,13.0,87,-99.99,,,0.00,466.510010,,2013-05-07 22:42:00,
2013-05-07 15:52:00,55.0,51.0,-100.00,WSW,250,4.0,13.0,87,-99.99,,,0.00,466.510010,,2013-05-07 22:52:00,
2013-05-07 16:02:00,55.0,51.0,-100.00,WSW,250,4.0,13.0,87,-99.99,,,0.00,466.510010,,2013-05-07 23:02:00,
2013-05-07 16:11:00,55.0,51.0,-100.00,WSW,250,4.0,13.0,87,-99.99,,,0.00,466.510010,,2013-05-07 23:11:00,
2013-05-07 16:41:00,54.0,50.0,-100.00,SW,227,6.0,14.0,86,-99.99,,,0.00,400.839996,,2013-05-07 23:41:00,
2013-05-07 16:52:00,54.0,50.0,-100.00,SW,227,6.0,14.0,86,-99.99,,,0.00,400.839996,,2013-05-07 23:52:00,
2013-05-07 17:01:00,54.0,50.0,-100.00,SW,227,6.0,14.0,86,-99.99,,,0.00,400.839996,,2013-05-08 00:01:00,
2013-05-07 17:11:00,54.0,50.0,-100.00,SW,227,6.0,14.0,86,-99.99,,,0.00,400.839996,,2013-05-08 00:11:00,
2013-05-07 17:42:00,54.0,50.0,-100.00,SW,232,5.0,12.0,87,-99.99,,,0.00,307.170013,,2013-05-08 00:42:00,
2013-05-07 17:52:00,54.0,50.0,-100.00,SW,232,5.0,12.0,87,-99.99,,,0.00,307.170013,,2013-05-08 00:52:00,
2013-05-07 18:02:00,54.0,50.0,-100.00,SW,232,5.0,12.0,87,-99.99,,,0.00,307.170013,,2013-05-08 01:02:00,
2013-05-07 18:11:00,54.0,50.0,-100.00,SW,232,5.0,12.0,87,-99.99,,,0.00,307.170013,,2013-05-08 01:11:00,
2013-05-07 18:42:00,54.0,49.0,-100.00,SW,233,4.0,9.0,84,-99.99,,,0.00,150.970001,,2013-05-08 01:42:00,
2013-05-07 18:52:00,54.0,49.0,-100.00,SW,233,4.0,9.0,84,-99.99,,,0.00,150.970001,,2013-05-08 01:52:00,
2013-05-07 19:01:00,54.0,49.0,-100.00,SW,233,4.0,9.0,84,-99.99,,,0.00,150.970001,,2013-05-08 02:01:00,
2013-05-07 19:12:00,54.0,49.0,-100.00,SW,233,4.0,9.0,84,-99.99,,,0.00,150.970001,,2013-05-08 02:12:00,
2013-05-07 19:31:00,53.0,49.0,-100.00,SSW,210,3.0,9.0,88,-99.99,,,0.00,49.389999,,2013-05-08 02:31:00,
2013-05-07 19:42:00,53.0,49.0,-100.00,SSW,210,3.0,9.0,88,-99.99,,,0.00,49.389999,,2013-05-08 02:42:00,
2013-05-07 19:52:00,53.0,49.0,-100.00,SSW,210,3.0,9.0,88,-99.99,,,0.00,49.389999,,2013-05-08 02:52:00,
2013-05-07 20:01:00,53.0,49.0,-100.00,SSW,210,3.0,9.0,88,-99.99,,,0.00,49.389999,,2013-05-08 03:01:00,
2013-05-07 20:11:00,53.0,49.0,-100.00,SSW,210,3.0,9.0,88,-99.99,,,0.00,49.389999,,2013-05-08 03:11:00,
2013-05-07 20:43:00,52.0,49.0,-100.00,SW,215,2.0,8.0,88,-99.99,,,0.00,9.760000,,2013-05-08 03:43:00,
2013-05-07 20:52:00,52.0,49.0,-100.00,SW,215,2.0,8.0,88,-99.99,,,0.00,9.760000,,2013-05-08 03:52:00,
2013-05-07 21:02:00,52.0,49.0,-100.00,SW,215,2.0,8.0,88,-99.99,,,0.00,9.760000,,2013-05-08 04:02:00,
2013-05-07 21:12:00,52.0,49.0,-100.00,SW,215,2.0,8.0,88,-99.99,,,0.00,9.760000,,2013-05-08 04:12:00,
2013-05-07 21:42:00,52.0,49.0,-100.00,SSW,201,3.0,11.0,88,-99.99,,,0.00,0.000000,,2013-05-08 04:42:00,
2013-05-07 21:53:00,52.0,49.0,-100.00,SSW,201,3.0,11.0,88,-99.99,,,0.00,0.000000,,2013-05-08 04:53:00,
2013-05-07 22:02:00,52.0,49.0,-100.00,SSW,201,3.0,11.0,88,-99.99,,,0.00,0.000000,,2013-05-08 05:02:00,
2013-05-07 22:12:00,52.0,49.0,-100.00,SSW,201,3.0,11.0,88,-99.99,,,0.00,0.000000,,2013-05-08 05:12:00,
2013-05-07 22:32:00,52.0,48.0,-100.00,SSW,199,4.0,11.0,87,-99.99,,,0.00,0.000000,,2013-05-08 05:32:00,
2013-05-07 22:42:00,52.0,48.0,-100.00,SSW,199,4.0,11.0,87,-99.99,,,0.00,0.000000,,2013-05-08 05:42:00,
2013-05-07 22:52:00,52.0,48.0,-100.00,SSW,199,4.0,11.0,87,-99.99,,,0.00,0.000000,,2013-05-08 05:52:00,
2013-05-07 23:01:00,52.0,48.0,-100.00,SSW,199,4.0,11.0,87,-99.99,,,0.00,0.000000,,2013-05-08 06:01:00,
2013-05-07 23:11:00,52.0,48.0,-100.00,SSW,199,4.0,11.0,87,-99.99,,,0.00,0.000000,,2013-05-08 06:11:00,
2013-05-07 23:41:00,52.0,49.0,-100.00,SSW,201,3.0,10.0,87,-99.99,,,-99.99,0.000000,,2013-05-08 06:41:00,
2013-05-07 23:52:00,52.0,49.0,-100.00,SSW,201,3.0,10.0,87,-99.99,,,-99.99,0.000000,,2013-05-08 06:52:00,